SCP
0 0 0 0 0 0 0 0 0 0 0 0 0 0 0 0 0 0 0 0 0 0 0 0 0 0 0 0 0 0 0 0 0 0 0 0 0 0 0 0 0 0 0 0
0 0 0 0 0 0 0 0 0 0 0 0 0 0 0 0 0 0 0 0 0 0 0 0 0 0 0 0 0 0 0 0 0 0 0 0 0 0 0 0 0 0 0 0
0 0 0 0 0 0 0 0 0 0 0 0 0 0 0 0 0 0 0 0 0 0 0 0 0 0 0 0 0 0 0 0 0 0 0 0 0 0 0 0 0 0 0 0
0 0 0 0 0 0 0 0 0 0 0 0 0 0 0 0 0 0 0 0 0 0 0 0 0 0 0 0 0 0 0 0 0 0 0 0 0 0 0 0 0 0 0 0
0 0 0 0 0 0 0 0 0 0 0 0 0 0 0 0 0 0 0 0 0 0 0 0 0 0 0 0 0 0 0 0 0 0 0 0 0 0 0 0 0 0 0 0
0 0 0 0 0 0 0 0 0 0 0 0 0 0 0 0 0 0 0 0 0 0 0 0 0 0 0 0 0 0 0 0 0 0 0 0 0 0 0 0 0 0 0 0
0 0 0 0 0 0 0 0 0 0 0 0 0 0 0 0 0 0 0 0 0 0 0 0 0 0 0 0 0 0 0 0 0 0 0 0 0 0 0 0 0 0 0 0
0 0 0 0 0 0 0 0 0 0 0 0 0 0 0 0 0 0 0 0 0 0 0 0 0 0 0 0 0 0 0 0 0 0 0 0 0 0 0 0 0 0 0 0
0 0 0 0 0 0 0 0 0 0 0 0 0 0 0 0 0 0 0 0 0 0 0 0 0 0 0 0 0 0 0 0 0 0 0 0 0 0 0 0 0 0 0 0
0 0 0 0 0 0 0 0 0 0 0 0 0 0 0 0 0 0 0 0 0 0 0 0 0 0 0 0 0 0 0 0 0 0 0 0 0 0 0 0 0 0 0 0
0 0 0 0 0 0 0 0 0 0 0 0 0 0 0 0 0 0 0 0 0 0 0 0 0 0 0 0 0 0 0 0 0 0 0 0 0 0 0 0 0 0 0 0
0 0 0 0 0 0 0 0 0 0 0 0 0 0 0 0 0 0 0 0 0 0 0 0 0 0 0 0 0 0 0 0 0 0 0 0 0 0 0 0 0 0 0 0
0 0 0 0 0 0 0 0 0 0 0 0 0 0 0 0 0 0 0 0 0 0 0 0 0 0 0 0 0 0 0 0 0 0 0 0 0 0 0 0 0 0 0 0
0 0 0 0 0 0 0 0 0 0 0 0 0 0 0 0 0 0 0 0 0 0 0 0 0 0 0 0 0 0 0 0 0 0 0 0 0 0 0 0 0 0 0 0
0 0 0 0 0 0 0 0 0 0 0 0 0 0 0 0 0 0 0 0 0 0 0 0 0 0 0 0 0 0 0 0 0 0 0 0 0 0 0 0 0 0 0 0
0 0 0 0 0 0 0 0 0 0 0 0 0 0 0 0 0 0 0 0 0 0 0 0 0 0 0 0 0 0 0 0 0 0 0 0 0 0 0 0 0 0 0 0
0 0 0 0 0 0 0 0 0 0 0 0 0 0 0 0 0 0 0 0 0 0 0 0 0 0 0 0 0 0 0 0 0 0 0 0 0 0 0 0 0 0 0 0
0 0 0 0 0 0 0 0 0 0 0 0 0 0 0 0 0 0 0 0 0 0 0 0 0 0 0 0 0 0 0 0 0 0 0 0 0 0 0 0 0 0 0 0
0 0 0 0 0 0 0 0 0 0 0 0 0 0 0 0 0 0 0 0 0 0 0 0 0 0 0 0 0 0 0 0 0 0 0 0 0 0 0 0 0 0 0 0
0 0 0 0 0 0 0 0 0 0 0 0 0 0 0 0 0 0 0 0 0 0 0 0 0 0 0 0 0 0 0 0 0 0 0 0 0 0 0 0 0 0 0 0
0 0 0 0 0 0 0 0 0 0 0 0 0 0 0 0 0 0 0 0 0 0 0 0 0 0 0 0 0 0 0 0 0 0 0 0 0 0 0 0 0 0 0 0
0 0 0 0 0 0 0 0 0 0 0 0 0 0 0 0 0 0 0 0 0 0 0 0 0 0 0 0 0 0 0 0 0 0 0 0 0 0 0 0 0 0 0 0
0 0 0 0 0 0 0 0 0 0 0 0 0 0 0 0 0 0 0 0 0 0 0 0 0 0 0 0 0 0 0 0 0 0 0 0 0 0 0 0 0 0 0 0
0 0 0 0 0 0 0 0 0 0 0 0 0 0 0 0 0 0 0 0 0 0 0 0 0 0 0 0 0 0 0 0 0 0 0 0 0 0 0 0 0 0 0 0
0 0 0 0 0 0 0 0 0 0 0 0 0 0 0 0 0 0 0 0 0 0 0 0 0 0 0 0 0 0 0 0 0 0 0 0 0 0 0 0 0 0 0 0
0 0 0 0 0 0 0 0 0 0 0 0 0 0 0 0 0 0 0 0 0 0 0 0 0 0 0 0 0 0 0 0 0 0 0 0 0 0 0 0 0 0 0 0
0 0 0 0 0 0 0 0 0 0 0 0 0 0 0 0 0 0 0 0 0 0 0 0 0 0 0 0 0 0 0 0 0 0 0 0 0 0 0 0 0 0 0 0
Wind_Speed
15 11 7 10 13 19 24 25 18 16 18 14 11 12 12 10 11 13 14 16 18 18 16 15 15 14 13 13 12 12 12 11 11 9 9 8 8 8 7 7 7 6 6 5
15 15 12 12 16 20 24 22 26 22 23 8 10 9 9 12 14 14 15 19 19 17 16 17 17 16 15 14 14 13 13 12 10 10 10 9 9 8 8 7 6 6 6 6
13 11 9 23 27 20 20 20 18 27 27 6 9 10 13 15 17 17 17 19 18 19 18 17 17 16 16 13 12 12 12 11 10 11 11 10 10 9 9 9 7 7 7 7
7 9 21 19 9 21 26 23 21 18 11 10 14 13 12 13 18 18 17 16 15 14 14 12 12 12 11 10 11 13 12 11 11 11 11 10 10 10 9 8 8 8 9 9
8 13 13 10 6 12 18 24 22 21 15 9 5 3 4 6 11 14 13 11 10 11 11 11 13 13 12 11 11 12 13 12 12 12 11 11 12 11 9 8 9 9 7 8
10 9 12 7 2 4 10 14 9 15 16 10 11 9 10 7 7 7 8 8 8 9 9 11 11 12 13 12 12 13 14 13 11 11 12 13 13 11 8 8 9 8 8 8
16 12 9 4 3 5 10 10 2 6 9 12 13 9 4 9 7 7 7 8 9 9 9 9 10 12 12 11 13 12 9 9 9 10 11 11 9 7 7 7 6 7 7 7
9 11 10 6 6 9 5 1 0 1 4 7 5 5 6 7 8 8 8 7 8 8 7 7 9 11 11 11 9 7 8 8 9 9 8 7 8 7 7 7 7 7 6 6
8 6 1 4 3 1 2 2 1 1 2 6 6 5 5 6 7 7 8 7 6 8 8 6 7 9 10 8 7 8 8 8 7 7 6 7 8 8 6 6 6 7 7 8
3 2 1 1 1 1 1 2 2 2 3 5 5 6 6 7 7 7 7 7 6 8 8 6 6 6 6 6 7 8 8 7 7 7 6 6 5 6 7 8 8 7 8 8
3 2 1 4 5 4 1 2 3 3 2 3 5 5 6 6 7 6 6 5 6 7 7 7 6 5 4 6 8 8 7 7 6 6 6 6 6 6 7 7 8 8 6 5
6 8 7 7 7 7 5 3 3 4 3 2 4 5 6 6 5 6 6 5 5 6 6 5 6 5 4 5 7 8 6 6 5 5 5 5 4 4 11 11 13 15 13 9
4 6 5 3 5 6 6 4 4 4 4 3 3 4 5 4 4 5 5 6 6 6 6 5 5 4 3 4 5 6 6 6 5 5 5 5 4 4 3 6 11 13 14 14
4 5 2 2 2 2 2 3 4 4 3 3 3 3 3 3 3 4 5 4 4 4 4 5 5 4 2 3 5 5 4 5 5 4 4 4 4 3 3 3 2 3 6 11
1 2 2 3 4 4 4 4 4 3 2 2 3 3 4 4 4 3 2 3 4 4 4 5 5 3 2 4 5 5 4 4 3 4 3 3 3 2 2 2 2 2 1 4
0 3 4 4 4 4 3 3 2 2 2 2 2 2 2 2 3 4 4 3 4 4 4 5 5 3 3 4 5 4 4 6 5 4 3 3 2 2 2 1 2 2 2 2
3 2 2 1 1 1 1 1 0 1 1 1 0 1 3 5 5 4 4 5 6 6 5 5 5 4 4 4 4 4 4 4 5 4 3 3 2 2 1 1 2 2 3 5
6 5 5 4 3 3 4 6 6 5 4 3 2 3 4 4 4 5 5 6 7 7 6 5 5 5 4 4 4 4 4 4 3 3 2 2 2 1 1 2 2 3 3 5
9 8 8 9 7 5 6 7 6 6 6 5 4 5 5 5 5 6 6 6 6 5 2 1 7 6 4 4 4 3 4 4 3 3 2 2 1 1 2 2 3 3 4 4
9 9 8 9 9 8 7 6 6 6 6 5 6 7 7 6 5 6 7 6 4 3 3 4 5 4 3 3 4 3 3 3 3 3 2 2 2 2 3 3 4 4 4 4
8 8 8 8 8 8 8 7 6 7 7 7 7 7 6 5 5 5 5 5 3 3 4 4 3 3 3 3 3 2 2 2 2 2 2 2 3 3 3 4 4 4 4 5
6 6 7 7 7 7 7 7 7 7 7 7 7 6 6 6 5 6 5 3 3 2 2 2 2 3 3 3 2 2 2 2 2 2 2 3 3 4 4 4 4 5 5 5
5 6 6 6 6 5 6 7 7 7 7 7 6 6 5 4 3 3 3 2 2 2 2 2 2 4 4 2 2 2 2 2 2 3 3 4 4 4 4 5 5 5 5 5
5 6 5 5 5 7 8 6 6 5 5 5 5 5 4 3 4 4 3 3 2 2 1 1 2 3 3 2 2 2 2 3 3 3 3 4 4 4 4 5 5 5 5 6
5 6 6 6 6 5 4 3 4 5 5 4 5 5 4 3 3 2 2 2 1 1 1 2 2 1 1 1 2 2 3 3 4 4 4 4 4 5 5 5 5 5 5 6
5 4 4 4 4 3 3 3 3 3 3 3 3 3 2 2 2 1 1 0 1 1 2 2 2 2 2 3 3 3 4 4 4 4 5 5 5 5 5 6 7 6 6 6
4 4 4 4 4 4 4 3 3 3 3 2 2 2 2 2 2 1 2 1 2 2 2 2 2 3 3 3 4 4 4 4 4 4 5 5 5 5 5 7 6 5 6 6
Wind_Direction
242 246 199 188 204 211 216 222 230 239 236 230 212 211 206 187 175 177 182 186 189 189 186 182 180 181 180 179 175 173 174 179 182 175 169 164 163 163 163 166 170 171 172 179
242 240 246 243 225 216 222 229 237 250 252 221 219 202 184 177 179 186 190 194 194 191 186 185 185 184 182 182 178 175 180 185 179 172 170 170 168 164 165 170 171 173 184 189
242 230 231 242 233 219 222 222 224 240 248 224 226 208 193 185 186 192 195 197 195 193 190 188 185 182 184 181 171 175 182 182 178 174 174 175 169 168 177 181 180 189 196 198
233 204 232 243 206 206 223 231 223 233 238 203 211 212 202 187 186 194 196 195 193 188 184 178 173 174 170 166 168 177 183 184 180 176 178 173 171 182 188 184 190 198 204 205
219 234 252 267 205 189 206 235 224 229 236 217 186 166 235 195 184 188 185 182 179 175 169 164 168 167 161 168 171 178 188 188 184 180 178 178 186 194 192 188 196 202 202 202
221 222 227 241 202 187 174 244 224 208 219 196 152 197 228 185 157 147 148 149 150 148 144 156 161 156 162 171 175 189 193 191 184 181 184 190 196 195 188 191 199 198 208 205
230 235 244 236 220 126 171 235 242 203 196 175 188 209 171 143 140 137 131 133 136 138 145 153 150 151 164 172 191 195 182 175 177 185 192 195 191 184 179 184 187 199 211 212
216 228 236 171 161 182 200 141 141 162 168 166 149 105 114 125 128 127 122 126 129 130 132 135 144 152 166 188 192 165 161 171 181 186 186 181 178 178 174 176 188 203 213 228
199 211 158 161 179 159 121 128 102 98 117 138 134 138 132 134 135 133 134 135 129 133 131 136 151 159 176 187 158 153 163 175 176 171 171 168 173 175 171 178 194 206 211 229
156 188 163 32 338 278 95 104 85 80 114 139 146 149 144 141 141 139 137 141 134 136 142 155 165 171 174 152 149 155 167 170 164 166 169 166 171 175 182 191 201 209 214 226
167 167 171 267 248 238 224 116 102 91 107 140 143 148 149 148 150 149 142 142 145 154 163 171 166 171 165 152 150 160 165 164 165 170 172 177 190 199 198 204 201 206 214 215
198 185 181 211 215 212 214 209 160 136 128 120 148 154 150 155 158 153 151 147 152 162 169 168 159 160 155 154 156 159 164 169 170 170 173 176 185 222 239 230 234 240 238 233
153 175 186 205 209 203 209 203 162 162 164 156 149 149 152 156 160 154 156 163 175 181 176 162 152 146 138 141 152 163 169 168 164 166 169 176 180 192 225 248 244 247 251 255
143 144 169 200 193 183 173 145 131 127 132 136 141 136 141 143 145 165 180 183 167 150 144 141 133 124 108 125 136 147 146 149 152 157 159 166 175 183 188 200 235 263 268 271
136 89 99 92 79 80 86 98 106 125 139 139 138 152 164 175 186 178 121 104 112 113 114 121 123 111 90 115 127 132 133 129 126 125 129 136 142 152 171 201 230 256 277 289
262 81 63 75 84 85 88 103 133 179 179 174 172 195 190 152 110 88 68 81 116 124 119 116 114 105 95 108 115 112 112 118 117 119 120 125 135 151 175 205 237 256 263 267
66 61 32 36 37 51 71 75 72 22 47 53 76 123 117 111 103 92 73 63 80 84 83 100 107 100 92 100 111 115 112 113 115 116 127 138 146 165 188 214 240 254 259 273
29 30 27 32 24 23 33 33 30 29 26 12 46 92 112 134 143 130 114 98 89 76 62 79 102 94 85 81 88 102 111 118 123 127 131 139 149 168 201 234 250 263 268 284
26 30 34 36 24 31 41 33 26 24 15 22 58 70 68 72 95 112 114 108 106 102 85 107 119 102 98 107 105 99 113 124 127 129 134 145 163 209 230 241 251 258 267 269
29 31 41 45 39 41 38 24 27 33 23 35 71 77 72 67 84 99 95 80 59 96 116 99 101 106 107 110 111 110 120 131 140 149 160 179 207 227 235 241 248 254 259 262
25 29 37 44 47 41 31 25 36 41 32 43 68 81 84 76 74 87 99 93 68 83 103 104 105 114 118 118 112 120 130 141 155 172 191 210 228 239 244 248 251 254 257 259
23 32 39 42 51 45 28 28 39 49 51 54 63 76 84 80 75 66 58 87 122 117 112 111 115 128 140 144 150 155 166 177 192 205 217 226 233 242 248 251 253 255 256 257
33 39 44 42 49 54 45 39 40 47 52 53 54 59 67 65 53 77 89 91 116 125 111 116 153 163 169 179 185 186 195 208 221 228 231 234 237 240 247 253 254 256 259 261
42 44 44 45 55 58 50 36 38 46 54 57 47 40 44 60 53 46 75 91 74 76 78 205 225 202 179 179 190 206 221 231 237 241 244 246 246 247 249 253 258 259 259 263
44 46 43 48 53 50 47 42 47 48 51 51 45 38 31 35 61 58 52 53 38 26 346 312 309 345 50 225 233 238 241 242 242 242 245 250 253 253 253 253 254 258 259 260
49 53 54 55 47 29 23 33 44 37 37 42 34 29 25 22 31 34 23 334 279 283 282 282 283 276 255 248 245 245 245 250 252 247 243 246 250 253 256 257 259 258 260 261
56 52 49 46 33 22 20 29 38 29 20 23 14 2 1 354 347 339 321 301 285 274 266 260 255 250 249 250 251 252 250 249 248 249 249 249 250 252 256 259 260 260 262 265